Tracking 31027 objects as of 19-Jul-2025
HD Live streaming from Space Station
objects crossing your sky now

COSMOS 2251 DEB

Track COSMOS 2251 DEB now!
10-day predictions


NORAD ID: 34021
Int'l Code: 1993-036HG
Perigee: 720.2 km
Apogee: 749.8 km
Inclination: 74.0 °
Period: 99.4 minutes
Semi major axis: 7105 km
RCS: 0.026 m2 (small)
Launch date: June 16, 1993
Source: Commonwealth of Independent States (former USSR) (CIS)
Launch site: PLESETSK MISSILE AND SPACE COMPLEX (PKMTR)

Note: This is SATELLITE DEBRIS
Your satellite tracking list
COSMOS 1743
Track 1 satellite(s)




NASA's NSSDC Master Catalog

Two Line Element Set (TLE):
1 34021U 93036HG  25199.54906553  .00000841  00000-0  22685-3 0  9993
2 34021  74.0361  46.0346 0020868 225.1948 163.1231 14.49322360864976
Source of the keplerian elements: AFSPC